Content
SEND FEEDBACK

Daily
Averages
Monthly
Summary
United States of America

NEW PALTZ, NEW YORK


Home > North America > United States > New York
Elevation: 1243 feet     Latitude: 41 08N     Longitude: 074 33W

WEATHER
 
SELECT A DAY
Number of Records: 175,686;   Date Range: 1/1/95 - 9/21/14
 
SHARE

PRINT THIS DATA

[ ← Previous Day ]
WEATHER ALMANAC - FEBRUARY 6, 2013
[ Next Day → ]
[ °C ]   °F
Weather ElementAverageHighLow
Temperature30.6 °F37 °F (1:56 pm)25 °F (11:56 pm)
Dewpoint18.7 °F26.6 °F (4:56 am)6.1 °F (10:56 pm)
Humidity64.7 %93 % (4:56 am)39 % (3:56 pm)
Barometer30.10 in30.35 in (11:56 pm)29.92 in (4:20 am)
Wind Speed9.3 mph17.3 mph (10:56 am)
Wind Gust26.5 mph (2:56 pm)
Weather ElementAverage
Visibility6.7 mi
Wind DirectionWSW (245.6 °)

Weather ElementTotal
Precipitation---
Heating Degree Days34 (Base 65)
Averaged from 27 records on February 6, 2013
WEATHER CONDITIONS BREAKOUT
WIND DIRECTION BREAKOUT
WEATHER BY HOUR - FEBRUARY 6, 2013
[ °C ]   °F
Local TimeTemperatureDewpointHumidityBarometerVisibilityWind DirectionWind SpeedGust SpeedPrecipitationEventsConditions
1:56 AM27.0 °F24.1 °F89 %29.93 in3.0 miCalm0.00 inOvercast
2:56 AM28.0 °F26.1 °F92 %29.93 in3.0 miCalmOvercast
3:56 AM28.0 °F26.1 °F92 %29.94 in3.0 miCalmMostly Cloudy
4:20 AM28.4 °F24.8 °F86 %29.92 in2.5 miCalmOvercast
4:37 AM28.4 °F24.8 °F86 %29.92 in3.0 miNW (310°)4.6 mphOvercast
4:56 AM28.4 °F26.6 °F93 %29.92 in3.0 miCalmOvercast
5:56 AM28.0 °F25.0 °F88 %29.99 in3.0 miWest (270°)5.8 mphOvercast
6:56 AM28.0 °F25.0 °F88 %30.01 in1.5 miWest (280°)4.6 mphOvercast
7:56 AM27.0 °F25.0 °F92 %30.04 in1.5 miWNW (300°)3.5 mphPartly Cloudy
8:20 AM28.4 °F24.8 °F86 %30.02 in2.0 miWest (270°)5.8 mphClear
8:38 AM30.2 °F24.8 °F80 %30.03 in3.0 miWest (270°)6.9 mphHaze
8:56 AM30.0 °F24.1 °F79 %30.06 in4.0 miWest (270°)8.1 mphHaze
9:56 AM33.1 °F21.9 °F64 %30.07 in8.0 miWNW (290°)12.7 mphClear
10:56 AM34.0 °F21.0 °F59 %30.09 in10.0 miNW (310°)17.3 mphMostly Cloudy
11:56 AM35.1 °F19.9 °F54 %30.08 in10.0 miWNW (300°)13.8 mph25.3 mphMostly Cloudy
12:56 PM35.1 °F18.0 °F50 %30.09 in10.0 miNW (320°)15.0 mph20.7 mphMostly Cloudy
1:56 PM37.0 °F18.0 °F46 %30.10 in10.0 miWNW (290°)17.3 mph24.2 mphMostly Cloudy
2:56 PM37.0 °F16.0 °F42 %30.11 in10.0 miWNW (300°)16.1 mph26.5 mphScattered Clouds
3:56 PM37.0 °F14.0 °F39 %30.14 in10.0 miWNW (290°)16.1 mph24.2 mphScattered Clouds
4:56 PM35.1 °F12.9 °F40 %30.17 in10.0 miWNW (300°)16.1 mph21.9 mphClear
5:56 PM33.1 °F12.0 °F42 %30.20 in10.0 miNW (320°)13.8 mph21.9 mphClear
6:56 PM32.0 °F10.9 °F42 %30.25 in10.0 miNW (310°)16.1 mphClear
7:56 PM30.9 °F10.9 °F43 %30.28 in10.0 miNW (310°)16.1 mphClear
8:56 PM30.0 °F9.0 °F41 %30.30 in10.0 miNW (320°)13.8 mphClear
9:56 PM27.0 °F8.1 °F45 %30.31 in10.0 miNNW (330°)9.2 mphClear
10:56 PM26.1 °F6.1 °F43 %30.34 in10.0 miNNW (340°)6.9 mphClear
11:56 PM25.0 °F6.1 °F45 %30.35 in10.0 miNNW (330°)10.4 mphClear
Hourly data recorded from KHPN, located miles away from New Paltz, New York







STORIES FROM OUR PARTNERS